Miscellaneous Local Product
Issued by NWS Hastings, NE

Home | Current Version | Previous Version | Text Only | Print | Product List | Glossary Off
Versions: 1 2 3 4 5 6 7 8 9 10 11 12 13 14 15 16 17 18 19 20 21 22 23 24 25 26 27 28 29 30 31 32 33 34 35 36 37 38 39 40 41 42 43 44 45 46 47 48 49 50

000
AXUS43 KGID 012302
MISGRI

GID CWA HOURLY WEATHER ROUNDUP
NATIONAL WEATHER SERVICE HASTINGS NE
600 PM CDT SAT AUG 01 2015

NOTE: "FAIR" INDICATES FEW OR NO CLOUDS BELOW 12,000 FEET WITH NO
SIGNIFICANT WEATHER AND/OR OBSTRUCTIONS TO VISIBILITY.

...SOUTH CENTRAL NEBRASKA...

CITY           SKY/WX    TMP DP  RH WIND       PRES   REMARKS
GRAND ISLAND   MOSUNNY   80  61  52 S8        29.97F
HASTINGS       MOSUNNY   83  60  45 E3        29.98F
KEARNEY        MOSUNNY   81  61  50 SE8       29.99F
ORD            MOSUNNY   82  56  40 S13       29.94F
YORK           MOSUNNY   81  66  61 SW5       29.97F
AURORA         MOSUNNY   81  63  53 SE5       29.97F
LEXINGTON      SUNNY     85  61  45 E15       30.00F
HOLDREGE       SUNNY     83  61  47 E15       30.01F
HEBRON         SUNNY     86  66  51 NE8       29.97F

...NEBRASKA PANHANDLE...

CITY           SKY/WX    TMP DP  RH WIND       PRES   REMARKS
CHADRON        MOSUNNY   92  62  36 S14       29.92F HX  92
ALLIANCE       MOSUNNY   82  58  43 S18G29    30.00S
SCOTTSBLUFF    MOSUNNY   93  51  23 NE9       29.97F HX  90
SIDNEY         MOSUNNY   94  52  24 S21G29    30.01F HX  91

...WESTERN AND NORTH CENTRAL NEBRASKA...

CITY           SKY/WX    TMP DP  RH WIND       PRES   REMARKS
VALENTINE      SUNNY     84  56  38 S22G28    29.96S
AINSWORTH      SUNNY     84  58  41 SW14      29.96F
ONEILL         SUNNY     87  56  34 SW16      29.93S
BROKEN BOW     PTSUNNY   81  54  39 S12       29.97F
IMPERIAL       SUNNY     94  47  20 SE17G28   29.98F HX  90
NORTH PLATTE   SUNNY     83  61  47 E18       30.00F
MCCOOK         SUNNY     92  57  30 SE12      29.97F HX  90

...EASTERN NEBRASKA...

CITY           SKY/WX    TMP DP  RH WIND       PRES   REMARKS
NORFOLK        SUNNY     86  63  45 S14       29.92S
SO SIOUX CITY  SUNNY     82  68  62 SE12      29.89F
TEKAMAH        FAIR      82  69  64 S9        29.91F
COLUMBUS       SUNNY     81  63  54 SW7       29.93F
ALBION         SUNNY     82  64  53 S5        29.94F
OMAHA EPPLEY   PTSUNNY   85  67  54 SE9       29.92F
OFFUTT AFB     PTSUNNY   84  71  66 SE6       29.91F
MILLARD        PTSUNNY   85  71  62 S7        29.92F
LINCOLN        MOSUNNY   87  59  38 S8        29.93F
NEBRASKA CITY  MOSUNNY   84  67  54 W7        29.95F
BEATRICE       MOSUNNY   86  71  60 N9        29.96F HX  91
FALLS CITY     MOSUNNY   88  76  67 N3        29.94F HX  99

...NORTHERN KANSAS...

CITY           SKY/WX    TMP DP  RH WIND       PRES   REMARKS
GOODLAND       MOSUNNY   89  49  25 SE13      30.03F
HILL CITY      SUNNY     94  56  27 SE9       29.97F HX  92
NORTON         CLEAR     90  52  27 SE9       29.97F
PHILLIPSBURG   SUNNY     95  61  31 SE5       29.96F HX  95
SMITH CENTER   SUNNY     90  61  37 E7        29.96F
HAYS           MOSUNNY   91  59  33 SE16      29.97F HX  90
RUSSELL        SUNNY     93  58  30 SE12G17   29.95F HX  92
CONCORDIA      MOSUNNY   91  66  43 SE6       29.94F HX  93
SALINA         SUNNY     94  63  35 S8        29.95F HX  95
TOPEKA         SUNNY     92  66  42 SW6       29.95F HX  94



USA.gov is the U.S. government's official web portal to all federal, state and local government web resources and services.